Weather History for KSAT - February, 2012

Change the Weather History Date:

Saturday, February 25, 2012

  Actual Average Record
Temperature  
Mean Temperature 49 °F 58 °F  
Max Temperature 56 °F 69 °F 92 °F (2008)
Min Temperature 42 °F 47 °F 21 °F (1960)
Degree Days  
Heating Degree Days 16 8  
Month to date heating degree days 231 259  
Since 1 July heating degree days 1035 1277  
Cooling Degree Days 0 1  
Month to date cooling degree days 19 21  
Year to date cooling degree days 24 28  
Moisture  
Dew Point 30 °F    
Average Humidity 53    
Maximum Humidity 70    
Minimum Humidity 35    
Precipitation  
Precipitation 0.00 in 0.06 in 1.96 in (1949)
Month to date precipitation 5.38 1.58  
Year to date precipitation 9.37 3.34  
Snow  
Snow 0.00 in - - ()
Month to date snowfall 0.0  
Since 1 July snowfall T  
Snow Depth 0.00 in    
Sea Level Pressure  
Sea Level Pressure 30.32 in    
Wind  
Wind Speed 6 mph (South)    
Max Wind Speed 14 mph    
Max Gust Speed 17 mph    
Visibility 10 miles    
Events      
T = Trace of Precipitation, MM = Missing Value Source: NWS Daily Summary

Daily Weather History Graph

Daily Weather History Graph

Search for Another Location

Airport or City:

Trip Planner

Search our weather history database for the weather conditions in past years. The results will help you decide how hot, cold, wet, or windy it might be!

Date:

Astronomy

Feb. 25, 2012 Rise Set
Actual Time 7:04 AM CST 6:30 PM CST
Civil Twilight 6:40 AM CST 6:54 PM CST
Nautical Twilight 6:12 AM CST 7:21 PM CST
Astronomical Twilight 5:44 AM CST 7:49 PM CST
Moon 8:50 AM CST (2/25) 10:07 PM CST (2/25)
Length of Visible Light 12h 14m
Length of Day
11h 26m
Waxing Crescent, 14% of the Moon is Illuminated
Feb 25
Waxing Crescent
Feb 29
First Quarter
Mar 8
Full
Mar 14
Last Quarter
Mar 22
New

Hourly Weather History & Observations

Time (CST) Temp. Windchill Dew Point Humidity Pressure Visibility Wind Dir Wind Speed Gust Speed Precip Events Conditions
12:53 AM 45.0 °F 41.8 °F 30.9 °F 58% 30.37 in 10.0 mi NW 5.8 mph - N/A   Overcast
1:53 AM 45.0 °F 41.8 °F 30.9 °F 58% 30.38 in 10.0 mi WNW 5.8 mph - N/A   Overcast
2:53 AM 44.6 °F 40.2 °F 30.2 °F 57% 30.37 in 10.0 mi NNW 8.1 mph - N/A   Overcast
3:53 AM 46.0 °F 43.1 °F 27.0 °F 47% 30.32 in 10.0 mi North 5.8 mph - N/A   Overcast
4:53 AM 46.0 °F 43.1 °F 25.0 °F 44% 30.32 in 10.0 mi NNE 5.8 mph - N/A   Overcast
5:53 AM 44.1 °F - 27.0 °F 51% 30.36 in 10.0 mi Calm Calm - N/A   Overcast
6:53 AM 43.0 °F - 28.9 °F 58% 30.37 in 10.0 mi Calm Calm - N/A   Overcast
7:53 AM 45.0 °F 42.6 °F 28.9 °F 53% 30.40 in 10.0 mi SSW 4.6 mph - N/A   Mostly Cloudy
8:53 AM 46.9 °F - 33.1 °F 59% 30.41 in 10.0 mi Calm Calm - N/A   Overcast
9:53 AM 50.0 °F - 30.0 °F 46% 30.40 in 10.0 mi East 3.5 mph - N/A   Overcast
10:53 AM 52.0 °F - 28.9 °F 41% 30.42 in 10.0 mi SW 8.1 mph - N/A   Mostly Cloudy
11:53 AM 52.0 °F - 27.0 °F 38% 30.38 in 10.0 mi North 3.5 mph - N/A   Mostly Cloudy
12:53 PM 52.0 °F - 26.1 °F 37% 30.36 in 10.0 mi SSW 8.1 mph - N/A   Mostly Cloudy
1:53 PM 53.1 °F - 28.0 °F 38% 30.32 in 10.0 mi South 5.8 mph - N/A   Mostly Cloudy
2:53 PM 55.0 °F - 28.9 °F 37% 30.29 in 10.0 mi South 8.1 mph - N/A   Mostly Cloudy
3:53 PM 55.0 °F - 36.0 °F 49% 30.26 in 10.0 mi WSW 6.9 mph - N/A   Scattered Clouds
4:53 PM 54.0 °F - 27.0 °F 35% 30.25 in 10.0 mi South 5.8 mph - N/A   Scattered Clouds
5:53 PM 51.1 °F - 28.0 °F 41% 30.24 in 10.0 mi SSE 6.9 mph - N/A   Partly Cloudy
6:53 PM 48.0 °F - 30.9 °F 52% 30.24 in 10.0 mi SSE 8.1 mph - N/A   Partly Cloudy
7:53 PM 46.9 °F - 33.1 °F 59% 30.24 in 10.0 mi SSE 6.9 mph - N/A   Partly Cloudy
8:53 PM 46.9 °F - 34.0 °F 61% 30.24 in 10.0 mi SSE 8.1 mph - N/A   Clear
9:53 PM 42.1 °F 37.7 °F 34.0 °F 73% 30.24 in 10.0 mi SE 6.9 mph - N/A   Clear
10:53 PM 44.1 °F 40.8 °F 30.9 °F 60% 30.24 in 10.0 mi South 5.8 mph - N/A   Clear
11:53 PM 43.0 °F 39.5 °F 32.0 °F 65% 30.22 in 10.0 mi SSE 5.8 mph - N/A   Clear